Location: Bremen
(53.0830°N, 8.8000°E)
Time: 18:27:28
(UTC+01:00)

Envisat - Pass Details

Date: 09 October 2022
Orbit: 763 x 765 km, 98.2° (Epoch: 30 November)

Event Time Altitude Azimuth Distance (km) Brightness Sun altitude
Rises 05:31:49 0° 17° (NNE) 3,248 6.7 -19.9°
Reaches altitude 10° 05:34:12 10° 23° (NNE) 2,316 6.0 -19.5°
Maximum altitude 05:39:11 53° 100° (E) 939 3.8 -18.8°
Drops below altitude 10° 05:44:08 10° 177° (S) 2,298 5.4 -18.1°
Sets 05:46:29 0° 182° (S) 3,220 6.1 -17.8°
